| time (UTC) | temp F | wind direction | speed MPH | gust MPH | rain 1hr in | rain 24hr in | rain mn in | humidity % | barometer mb |
| 20260903222521 | 101 | 103 | 6.0 | 10.0 | 0.00 | 0.00 | 0.00 | 37 | 1013.0 |
| 20260903221522 | 102 | 139 | 3.0 | 7.0 | 0.00 | 0.00 | 0.00 | 36 | 1013.1 |
| 20260903220757 | 101 | 128 | 3.0 | 5.0 | 0.00 | 0.00 | 0.00 | 35 | 1008.1 |
| 20260903220519 | 102 | 129 | 4.0 | 5.0 | 0.00 | 0.00 | 0.00 | 36 | 1013.1 |
| 20260903215521 | 102 | 118 | 4.0 | 8.0 | 0.00 | 0.00 | 0.00 | 36 | 1013.2 |
| 20260903214518 | 103 | 115 | 6.0 | 9.0 | 0.00 | 0.00 | 0.00 | 36 | 1013.3 |
| 20260903213757 | 102 | 176 | 3.0 | 6.0 | 0.00 | 0.00 | 0.00 | 35 | 1008.3 |
| 20260903213540 | 103 | 177 | 4.0 | 6.0 | 0.00 | 0.00 | 0.00 | 35 | 1013.4 |
| 20260903212521 | 103 | 80 | 5.0 | 7.0 | 0.00 | 0.00 | 0.00 | 35 | 1013.4 |
| 20260903211517 | 103 | 122 | 4.0 | 7.0 | 0.00 | 0.00 | 0.00 | 35 | 1013.5 |
| 20260903210757 | 103 | 135 | 4.0 | 6.0 | 0.00 | 0.00 | 0.00 | 36 | 1008.4 |
| 20260903210525 | 104 | 136 | 4.0 | 7.0 | 0.00 | 0.00 | 0.00 | 36 | 1013.6 |
| 20260903205528 | 104 | 74 | 5.0 | 8.0 | 0.00 | 0.00 | 0.00 | 35 | 1013.8 |
| 20260903204530 | 104 | 105 | 3.0 | 4.0 | 0.00 | 0.00 | 0.00 | 36 | 1013.9 |
| 20260903203757 | 104 | 116 | 4.0 | 7.0 | 0.00 | 0.00 | 0.00 | 35 | 1008.7 |
| 20260903203546 | 104 | 116 | 4.0 | 8.0 | 0.00 | 0.00 | 0.00 | 36 | 1014.0 |
| 20260903202529 | 105 | 150 | 6.0 | 8.0 | 0.00 | 0.00 | 0.00 | 35 | 1014.1 |
| 20260903201531 | 106 | 346 | 4.0 | 7.0 | 0.00 | 0.00 | 0.00 | 35 | 1014.3 |
| 20260903200757 | 103 | 47 | 3.0 | 6.0 | 0.00 | 0.00 | 0.00 | 37 | 1009.3 |
| 20260903200533 | 103 | 48 | 3.0 | 6.0 | 0.00 | 0.00 | 0.00 | 38 | 1014.5 |
| 20260903195518 | 102 | 126 | 3.0 | 5.0 | 0.00 | 0.00 | 0.00 | 38 | 1014.7 |
| 20260903194520 | 103 | 106 | 6.0 | 10.0 | 0.00 | 0.00 | 0.00 | 38 | 1014.8 |
| 20260903193757 | 102 | 122 | 4.0 | 7.0 | 0.00 | 0.00 | 0.00 | 38 | 1009.8 |
| 20260903193522 | 102 | 123 | 5.0 | 7.0 | 0.00 | 0.00 | 0.00 | 39 | 1014.9 |
| 20260903192524 | 102 | 183 | 3.0 | 6.0 | 0.00 | 0.00 | 0.00 | 38 | 1015.1 |
| 20260903191526 | 102 | 147 | 5.0 | 7.0 | 0.00 | 0.00 | 0.00 | 39 | 1015.3 |
| 20260903190757 | 100 | 199 | 4.0 | 6.0 | 0.00 | 0.00 | 0.00 | 39 | 1010.6 |
| 20260903190529 | 101 | 199 | 4.0 | 6.0 | 0.00 | 0.00 | 0.00 | 39 | 1015.5 |
| 20260903185525 | 101 | 155 | 4.0 | 6.0 | 0.00 | 0.00 | 0.00 | 40 | 1015.6 |
| 20260903184515 | 101 | 127 | 6.0 | 8.0 | 0.00 | 0.00 | 0.00 | 40 | 1016.0 |
| 20260903183757 | 100 | 113 | 5.0 | 9.0 | 0.00 | 0.00 | 0.00 | 39 | 1011.1 |
| 20260903183518 | 101 | 113 | 6.0 | 9.0 | 0.00 | 0.00 | 0.00 | 40 | 1016.1 |
| 20260903182520 | 101 | 122 | 6.0 | 12.0 | 0.00 | 0.00 | 0.00 | 40 | 1016.1 |
| 20260903181522 | 100 | 95 | 5.0 | 7.0 | 0.00 | 0.00 | 0.00 | 42 | 1016.4 |
| 20260903180757 | 99 | 118 | 3.0 | 5.0 | 0.00 | 0.00 | 0.00 | 43 | 1011.8 |
| 20260903180524 | 99 | 119 | 4.0 | 5.0 | 0.00 | 0.00 | 0.00 | 43 | 1016.6 |
| 20260903175527 | 97 | 148 | 5.0 | 8.0 | 0.00 | 0.00 | 0.00 | 44 | 1016.8 |
| 20260903174549 | 97 | 165 | 4.0 | 7.0 | 0.00 | 0.00 | 0.00 | 44 | 1016.8 |
| 20260903173757 | 97 | 139 | 4.0 | 5.0 | 0.00 | 0.00 | 0.00 | 44 | 1012.3 |
| 20260903173531 | 97 | 140 | 4.0 | 6.0 | 0.00 | 0.00 | 0.00 | 45 | 1017.0 |
| 20260903172515 | 97 | 104 | 5.0 | 9.0 | 0.00 | 0.00 | 0.00 | 46 | 1017.2 |
| 20260903171518 | 96 | 116 | 4.0 | 8.0 | 0.00 | 0.00 | 0.00 | 48 | 1017.3 |
| 20260903170757 | 94 | 136 | 5.0 | 9.0 | 0.00 | 0.00 | 0.00 | 49 | 1012.8 |
| 20260903170520 | 95 | 136 | 5.0 | 10.0 | 0.00 | 0.00 | 0.00 | 50 | 1017.3 |
| 20260903165522 | 95 | 114 | 6.0 | 9.0 | 0.00 | 0.00 | 0.00 | 51 | 1017.4 |
| 20260903164524 | 95 | 121 | 7.0 | 9.0 | 0.00 | 0.00 | 0.00 | 51 | 1017.5 |
| 20260903163757 | 96 | 92 | 5.0 | 7.0 | 0.00 | 0.00 | 0.00 | 50 | 1013.0 |
| 20260903163547 | 97 | 92 | 6.0 | 8.0 | 0.00 | 0.00 | 0.00 | 50 | 1017.5 |
| 20260903162529 | 96 | 123 | 4.0 | 6.0 | 0.00 | 0.00 | 0.00 | 52 | 1017.4 |
| 20260903161525 | 95 | 124 | 3.0 | 5.0 | 0.00 | 0.00 | 0.00 | 55 | 1017.4 |
| 20260903160757 | 92 | 153 | 4.0 | 8.0 | 0.00 | 0.00 | 0.00 | 57 | 1013.4 |
| 20260903160535 | 92 | 153 | 5.0 | 8.0 | 0.00 | 0.00 | 0.00 | 57 | 1017.5 |
| 20260903155517 | 92 | 148 | 3.0 | 5.0 | 0.00 | 0.00 | 0.00 | 61 | 1017.5 |
| 20260903154519 | 91 | 137 | 5.0 | 8.0 | 0.00 | 0.00 | 0.00 | 64 | 1017.4 |
| 20260903153757 | 90 | 106 | 4.0 | 7.0 | 0.00 | 0.00 | 0.00 | 65 | 1013.6 |
| 20260903153521 | 90 | 106 | 4.0 | 8.0 | 0.00 | 0.00 | 0.00 | 65 | 1017.4 |
| 20260903152524 | 89 | 97 | 4.0 | 6.0 | 0.00 | 0.00 | 0.00 | 68 | 1017.4 |
| 20260903151526 | 88 | 109 | 6.0 | 7.0 | 0.00 | 0.00 | 0.00 | 71 | 1017.5 |
| 20260903150757 | 86 | 140 | 4.0 | 6.0 | 0.00 | 0.00 | 0.00 | 73 | 1014.0 |
| 20260903150528 | 86 | 141 | 4.0 | 7.0 | 0.00 | 0.00 | 0.00 | 73 | 1017.5 |
| 20260903145551 | 86 | 119 | 4.0 | 5.0 | 0.00 | 0.00 | 0.00 | 74 | 1017.6 |
| 20260903144533 | 86 | 132 | 3.0 | 7.0 | 0.00 | 0.00 | 0.00 | 75 | 1017.6 |
| 20260903143757 | 84 | 128 | 4.0 | 6.0 | 0.00 | 0.00 | 0.00 | 78 | 1014.4 |
| 20260903143517 | 84 | 129 | 5.0 | 7.0 | 0.00 | 0.00 | 0.00 | 78 | 1017.6 |
| 20260903142519 | 83 | 122 | 4.0 | 6.0 | 0.00 | 0.00 | 0.00 | 80 | 1017.7 |
| 20260903141521 | 83 | 129 | 5.0 | 8.0 | 0.00 | 0.00 | 0.00 | 82 | 1017.6 |
| 20260903140757 | 80 | 129 | 5.0 | 7.0 | 0.00 | 0.00 | 0.00 | 86 | 1014.9 |
| 20260903140524 | 80 | 129 | 5.0 | 8.0 | 0.00 | 0.00 | 0.00 | 87 | 1017.7 |
| 20260903135526 | 80 | 89 | 3.0 | 7.0 | 0.00 | 0.00 | 0.00 | 88 | 1017.8 |
| 20260903134528 | 79 | 115 | 2.0 | 5.0 | 0.00 | 0.00 | 0.00 | 91 | 1017.8 |
| 20260903133757 | 78 | 115 | 2.0 | 3.0 | 0.00 | 0.00 | 0.00 | 92 | 1015.2 |
| 20260903133605 | 78 | 116 | 2.0 | 4.0 | 0.00 | 0.00 | 0.00 | 92 | 1017.8 |
| 20260903132520 | 78 | 106 | 3.0 | 5.0 | 0.00 | 0.00 | 0.00 | 94 | 1017.7 |
| 20260903131517 | 77 | 98 | 2.0 | 5.0 | 0.00 | 0.00 | 0.00 | 95 | 1017.7 |
| 20260903130757 | 76 | 104 | 1.0 | 5.0 | 0.00 | 0.00 | 0.00 | 95 | 1015.1 |
| 20260903130519 | 77 | 104 | 2.0 | 5.0 | 0.00 | 0.00 | 0.00 | 95 | 1017.5 |
| 20260903125521 | 77 | 101 | 0.0 | 2.0 | 0.00 | 0.00 | 0.00 | 95 | 1017.5 |
| 20260903124543 | 77 | 219 | 1.0 | 4.0 | 0.00 | 0.00 | 0.00 | 95 | 1017.3 |
| 20260903123757 | 76 | 110 | 1.0 | 4.0 | 0.00 | 0.00 | 0.00 | 94 | 1014.9 |
| 20260903123527 | 77 | 111 | 1.0 | 4.0 | 0.00 | 0.00 | 0.00 | 94 | 1017.3 |
| 20260903122528 | 77 | 114 | 1.0 | 3.0 | 0.00 | 0.00 | 0.00 | 94 | 1017.2 |
| 20260903121757 | 76 | 137 | 2.0 | 4.0 | 0.00 | 0.00 | 0.00 | 94 | 1014.7 |
| 20260903121530 | 77 | 138 | 2.0 | 5.0 | 0.00 | 0.00 | 0.00 | 94 | 1017.1 |
| 20260903120532 | 77 | 106 | 2.0 | 5.0 | 0.00 | 0.00 | 0.00 | 94 | 1017.0 |
| 20260903115757 | 76 | 103 | 1.0 | 4.0 | 0.00 | 0.00 | 0.00 | 94 | 1014.6 |
| 20260903115531 | 77 | 104 | 2.0 | 4.0 | 0.00 | 0.00 | 0.00 | 94 | 1017.0 |
| 20260903114757 | 76 | 112 | 3.0 | 6.0 | 0.00 | 0.00 | 0.00 | 94 | 1014.6 |
| 20260903114532 | 77 | 113 | 3.0 | 6.0 | 0.00 | 0.00 | 0.00 | 94 | 1017.0 |
| 20260903113757 | 76 | 120 | 3.0 | 6.0 | 0.00 | 0.00 | 0.00 | 94 | 1014.6 |
| 20260903113515 | 77 | 121 | 3.0 | 7.0 | 0.00 | 0.00 | 0.00 | 94 | 1017.0 |
| 20260903113257 | 76 | 117 | 4.0 | 6.0 | 0.00 | 0.00 | 0.00 | 94 | 1014.7 |
| 20260903112517 | 77 | 133 | 2.0 | 4.0 | 0.00 | 0.00 | 0.00 | 94 | 1017.1 |
| 20260903111816 | 76 | 113 | 3.0 | 5.0 | 0.00 | 0.00 | 0.00 | 94 | 1014.6 |
| 20260903111539 | 77 | 113 | 4.0 | 6.0 | 0.00 | 0.00 | 0.00 | 94 | 1017.0 |
| 20260903110521 | 76 | 118 | 2.0 | 4.0 | 0.00 | 0.00 | 0.00 | 94 | 1016.9 |
| 20260903105816 | 76 | 209 | 0.0 | 2.0 | 0.00 | 0.00 | 0.00 | 93 | 1014.6 |
| 20260903105524 | 76 | 210 | 0.0 | 2.0 | 0.00 | 0.00 | 0.00 | 93 | 1017.0 |
| 20260903104520 | 76 | 92 | 3.0 | 5.0 | 0.00 | 0.00 | 0.00 | 93 | 1016.8 |
| 20260903103816 | 76 | 87 | 2.0 | 5.0 | 0.00 | 0.00 | 0.00 | 92 | 1014.4 |
| 20260903103516 | 77 | 88 | 3.0 | 6.0 | 0.00 | 0.00 | 0.00 | 93 | 1016.8 |
| 20260903102816 | 76 | 96 | 4.0 | 7.0 | 0.00 | 0.00 | 0.00 | 92 | 1014.4 |
| 20260903102610 | 77 | 96 | 4.0 | 8.0 | 0.00 | 0.00 | 0.00 | 92 | 1016.8 |
| 20260903101816 | 76 | 108 | 3.0 | 7.0 | 0.00 | 0.00 | 0.00 | 90 | 1014.2 |
| 20260903101532 | 77 | 109 | 4.0 | 7.0 | 0.00 | 0.00 | 0.00 | 91 | 1016.6 |
| 20260903100517 | 77 | 125 | 3.0 | 6.0 | 0.00 | 0.00 | 0.00 | 90 | 1016.6 |
| 20260903100348 | 77 | 107 | 3.0 | 4.0 | 0.00 | 0.00 | 0.00 | 89 | 1014.2 |
| 20260903095539 | 77 | 116 | 3.0 | 6.0 | 0.00 | 0.00 | 0.00 | 89 | 1016.8 |
| 20260903094522 | 78 | 108 | 4.0 | 7.0 | 0.00 | 0.00 | 0.00 | 88 | 1016.8 |
| 20260903093524 | 78 | 124 | 4.0 | 6.0 | 0.00 | 0.00 | 0.00 | 88 | 1016.8 |
| 20260903093348 | 77 | 102 | 3.0 | 7.0 | 0.00 | 0.00 | 0.00 | 87 | 1014.4 |
| 20260903092546 | 78 | 103 | 4.0 | 7.0 | 0.00 | 0.00 | 0.00 | 87 | 1016.9 |
| 20260903091529 | 78 | 119 | 5.0 | 8.0 | 0.00 | 0.00 | 0.00 | 86 | 1016.8 |
| 20260903090551 | 78 | 123 | 4.0 | 6.0 | 0.00 | 0.00 | 0.00 | 85 | 1016.8 |
| 20260903090348 | 78 | 135 | 4.0 | 8.0 | 0.00 | 0.00 | 0.00 | 84 | 1014.2 |
| 20260903085533 | 79 | 123 | 4.0 | 7.0 | 0.00 | 0.00 | 0.00 | 84 | 1016.6 |
| 20260903084517 | 79 | 119 | 3.0 | 6.0 | 0.00 | 0.00 | 0.00 | 84 | 1016.8 |
| 20260903083519 | 79 | 96 | 3.0 | 8.0 | 0.00 | 0.00 | 0.00 | 84 | 1016.9 |
| 20260903083348 | 79 | 114 | 3.0 | 7.0 | 0.00 | 0.00 | 0.00 | 84 | 1014.2 |
| 20260903082521 | 79 | 115 | 4.0 | 8.0 | 0.00 | 0.00 | 0.00 | 84 | 1016.9 |
| 20260903081523 | 79 | 108 | 4.0 | 6.0 | 0.00 | 0.00 | 0.00 | 83 | 1016.9 |
| 20260903080520 | 80 | 120 | 4.0 | 6.0 | 0.00 | 0.00 | 0.00 | 82 | 1016.9 |
| 20260903080348 | 79 | 111 | 2.0 | 4.0 | 0.00 | 0.00 | 0.00 | 81 | 1014.2 |
| 20260903075516 | 80 | 119 | 3.0 | 5.0 | 0.00 | 0.00 | 0.00 | 81 | 1017.0 |
| 20260903074530 | 80 | 87 | 3.0 | 7.0 | 0.00 | 0.00 | 0.00 | 80 | 1016.8 |
| 20260903073532 | 80 | 141 | 4.0 | 8.0 | 0.00 | 0.00 | 0.00 | 80 | 1016.9 |
| 20260903073348 | 80 | 120 | 5.0 | 7.0 | 0.00 | 0.00 | 0.00 | 80 | 1014.3 |
| 20260903072517 | 80 | 132 | 5.0 | 10.0 | 0.00 | 0.00 | 0.00 | 80 | 1017.1 |
| 20260903071518 | 80 | 125 | 4.0 | 7.0 | 0.00 | 0.00 | 0.00 | 80 | 1017.2 |
| 20260903070520 | 80 | 88 | 3.0 | 5.0 | 0.00 | 0.00 | 0.00 | 79 | 1017.2 |
| 20260903070348 | 80 | 96 | 3.0 | 6.0 | 0.00 | 0.00 | 0.00 | 79 | 1014.3 |
| 20260903065525 | 81 | 133 | 3.0 | 6.0 | 0.00 | 0.00 | 0.00 | 79 | 1017.2 |
| 20260903064525 | 81 | 137 | 2.0 | 6.0 | 0.00 | 0.00 | 0.00 | 77 | 1017.2 |
| 20260903063607 | 81 | 121 | 4.0 | 6.0 | 0.00 | 0.00 | 0.00 | 76 | 1017.1 |
| 20260903063348 | 81 | 77 | 4.0 | 9.0 | 0.00 | 0.00 | 0.00 | 75 | 1014.2 |
| 20260903062529 | 81 | 126 | 3.0 | 6.0 | 0.00 | 0.00 | 0.00 | 75 | 1017.1 |
| 20260903061532 | 81 | 106 | 4.0 | 8.0 | 0.00 | 0.00 | 0.00 | 73 | 1017.1 |
| 20260903060516 | 80 | 100 | 2.0 | 5.0 | 0.00 | 0.00 | 0.00 | 73 | 1017.0 |
| 20260903060348 | 79 | 119 | 1.0 | 3.0 | 0.00 | 0.00 | 0.00 | 72 | 1014.2 |
| 20260903055538 | 80 | 127 | 2.0 | 4.0 | 0.00 | 0.00 | 0.00 | 71 | 1017.1 |
| 20260903054520 | 79 | 116 | 2.0 | 7.0 | 0.00 | 0.00 | 0.00 | 71 | 1017.1 |
| 20260903053523 | 77 | 119 | 2.0 | 5.0 | 0.00 | 0.00 | 0.00 | 73 | 1017.1 |
| 20260903053348 | 76 | 157 | 1.0 | 2.0 | 0.00 | 0.00 | 0.00 | 73 | 1014.7 |
| 20260903052519 | 77 | 120 | 1.0 | 3.0 | 0.00 | 0.00 | 0.00 | 75 | 1017.1 |
| 20260903051515 | 76 | 0.0 | 0.0 | 0.00 | 0.00 | 0.00 | 78 | 1016.9 | |
| 20260903050530 | 77 | 0.0 | 0.0 | 0.00 | 0.00 | 0.00 | 77 | 1016.9 | |
| 20260903050348 | 76 | 0 | 0.0 | 0.0 | 0.00 | 0.00 | 0.00 | 77 | 1014.5 |
| 20260903045532 | 77 | 158 | 0.0 | 2.0 | 0.00 | 0.00 | 0.00 | 77 | 1016.6 |
| 20260903044516 | 77 | 0.0 | 0.0 | 0.00 | 0.00 | 0.00 | 77 | 1016.6 | |
| 20260903043519 | 77 | 0.0 | 0.0 | 0.00 | 0.00 | 0.00 | 76 | 1016.6 | |
| 20260903043348 | 77 | 0 | 0.0 | 0.0 | 0.00 | 0.00 | 0.00 | 76 | 1014.1 |
| 20260903042521 | 78 | 0.0 | 0.0 | 0.00 | 0.00 | 0.00 | 75 | 1016.6 | |
| 20260903041523 | 78 | 0.0 | 0.0 | 0.00 | 0.00 | 0.00 | 74 | 1016.6 | |
| 20260903040525 | 79 | 0.0 | 0.0 | 0.00 | 0.00 | 0.00 | 72 | 1016.6 | |
| 20260903040348 | 79 | 0 | 0.0 | 0.0 | 0.00 | 0.00 | 0.00 | 71 | 1013.9 |
| 20260903035527 | 79 | 0.0 | 0.0 | 0.00 | 0.00 | 0.00 | 70 | 1016.4 | |
| 20260903034530 | 80 | 315 | 0.0 | 2.0 | 0.00 | 0.00 | 0.00 | 69 | 1016.4 |
| 20260903033532 | 80 | 0.0 | 0.0 | 0.00 | 0.00 | 0.00 | 67 | 1016.3 | |
| 20260903033348 | 80 | 0 | 0.0 | 0.0 | 0.00 | 0.00 | 0.00 | 65 | 1013.4 |
| 20260903032536 | 81 | 0.0 | 0.0 | 0.00 | 0.00 | 0.00 | 66 | 1016.2 | |
| 20260903031539 | 82 | 0.0 | 0.0 | 0.00 | 0.00 | 0.00 | 64 | 1016.1 | |
| 20260903030521 | 83 | 0.0 | 0.0 | 0.00 | 0.00 | 0.00 | 62 | 1016.0 | |
| 20260903030348 | 82 | 0 | 0.0 | 0.0 | 0.00 | 0.00 | 0.00 | 61 | 1013.0 |
| 20260903025523 | 83 | 0.0 | 0.0 | 0.00 | 0.00 | 0.00 | 61 | 1015.9 | |
| 20260903024519 | 84 | 0.0 | 0.0 | 0.00 | 0.00 | 0.00 | 60 | 1015.7 | |
| 20260903023516 | 85 | 0.0 | 0.0 | 0.00 | 0.00 | 0.00 | 57 | 1015.5 | |
| 20260903023348 | 85 | 0 | 0.0 | 0.0 | 0.00 | 0.00 | 0.00 | 55 | 1012.0 |
| 20260903022530 | 86 | 0.0 | 0.0 | 0.00 | 0.00 | 0.00 | 55 | 1015.4 | |
| 20260903021532 | 87 | 135 | 0.0 | 2.0 | 0.00 | 0.00 | 0.00 | 54 | 1015.2 |
| 20260903020516 | 87 | 138 | 1.0 | 2.0 | 0.00 | 0.00 | 0.00 | 53 | 1015.0 |
| 20260903020348 | 87 | 163 | 0.0 | 2.0 | 0.00 | 0.00 | 0.00 | 52 | 1011.4 |
| 20260903015518 | 88 | 143 | 1.0 | 3.0 | 0.00 | 0.00 | 0.00 | 52 | 1014.9 |
| 20260903014520 | 89 | 113 | 0.0 | 3.0 | 0.00 | 0.00 | 0.00 | 51 | 1014.9 |
| 20260903013522 | 90 | 135 | 0.0 | 2.0 | 0.00 | 0.00 | 0.00 | 49 | 1014.9 |
| 20260903013348 | 90 | 132 | 1.0 | 3.0 | 0.00 | 0.00 | 0.00 | 48 | 1011.0 |
| 20260903012545 | 91 | 114 | 1.0 | 3.0 | 0.00 | 0.00 | 0.00 | 48 | 1014.8 |
| 20260903011547 | 91 | 101 | 4.0 | 8.0 | 0.00 | 0.00 | 0.00 | 46 | 1014.5 |
| 20260903010529 | 92 | 162 | 1.0 | 4.0 | 0.00 | 0.00 | 0.00 | 45 | 1014.5 |
| 20260903010348 | 92 | 155 | 0.0 | 2.0 | 0.00 | 0.00 | 0.00 | 44 | 1010.5 |
| 20260903005531 | 93 | 170 | 1.0 | 3.0 | 0.00 | 0.00 | 0.00 | 44 | 1014.5 |
| 20260903004533 | 94 | 158 | 0.0 | 1.0 | 0.00 | 0.00 | 0.00 | 41 | 1014.5 |
| 20260903003538 | 96 | 116 | 2.0 | 4.0 | 0.00 | 0.00 | 0.00 | 39 | 1014.5 |
| 20260903003348 | 96 | 133 | 1.0 | 3.0 | 0.00 | 0.00 | 0.00 | 39 | 1010.0 |
| 20260903002519 | 97 | 112 | 1.0 | 4.0 | 0.00 | 0.00 | 0.00 | 39 | 1014.5 |
| 20260903001519 | 96 | 126 | 3.0 | 5.0 | 0.00 | 0.00 | 0.00 | 39 | 1014.7 |
| 20260903000515 | 97 | 135 | 4.0 | 6.0 | 0.00 | 0.00 | 0.00 | 38 | 1014.8 |
| 20260903000348 | 97 | 116 | 3.0 | 5.0 | 0.00 | 0.00 | 0.00 | 38 | 1010.2 |
| 20260902235523 | 97 | 111 | 2.0 | 6.0 | 0.00 | 0.00 | 0.00 | 38 | 1014.8 |
| 20260902234525 | 98 | 113 | 3.0 | 5.0 | 0.00 | 0.00 | 0.00 | 37 | 1014.9 |
| 20260902233527 | 99 | 86 | 3.0 | 5.0 | 0.00 | 0.00 | 0.00 | 36 | 1014.9 |
| 20260902233348 | 99 | 121 | 2.0 | 5.0 | 0.00 | 0.00 | 0.00 | 35 | 1010.1 |
| 20260902232530 | 100 | 79 | 3.0 | 5.0 | 0.00 | 0.00 | 0.00 | 36 | 1014.9 |
| 20260902231531 | 100 | 147 | 2.0 | 4.0 | 0.00 | 0.00 | 0.00 | 35 | 1014.8 |
| 20260902230515 | 100 | 91 | 3.0 | 5.0 | 0.00 | 0.00 | 0.00 | 36 | 1014.8 |
| 20260902230348 | 100 | 131 | 4.0 | 6.0 | 0.00 | 0.00 | 0.00 | 35 | 1009.9 |
| 20260902225518 | 100 | 193 | 3.0 | 5.0 | 0.00 | 0.00 | 0.00 | 35 | 1014.8 |
| 20260902224519 | 100 | 154 | 3.0 | 5.0 | 0.00 | 0.00 | 0.00 | 34 | 1014.8 |
| 20260902223522 | 101 | 122 | 5.0 | 10.0 | 0.00 | 0.00 | 0.00 | 35 | 1014.8 |
| 20260902223348 | 100 | 160 | 4.0 | 5.0 | 0.00 | 0.00 | 0.00 | 35 | 1010.1 |